Погода Идринское

Погода Идринское : погода сейчас, прогноз погоды и архив. Всё, что Вы хотите узнать о погоде Идринское!

Хотите узнать прогноз погоды Идринское? Тогда Вам сюда: Погода Идринское

Поиск расширенной информации на нашем сайте:

Другие новости

Новости СМИ2

Главная страница сайта

Новости сайта

02.10.2013

Напоминаем, что на нашем новом сайте вы можете получить высокодетализированные прогнозы погоды по пунктам России, СНГ и мира (включающие важные для авиации метеовеличины, такие как направление и скорость ветра, видимость, явления погоды, количество и форма облачности, нижняя и верхняя граница облачности), а также ознакомиться с разнообразными материалами по авиационной метеорологии и подборкой полезных ссылок на эту тему.

Сайт Метеоцентр.Азия посвящён разработке технологий оптимизации авиаметеорологического обслуживания, включая проектирование и перспективное создание нескольких автоматизированных авиаметеорологических систем:
- система выпуска высокодетальных прогностических карт явлений погоды для нижнего воздушного пространства по России и ближнему зарубежью;
- система верификации прогнозов TAF (выпускаемых синоптиками официальных АМСГ РФ и ближнего зарубежья) и AUTOTAF (выпускаемых сайтом Метеоцентр.Азия) - выявление ошибок, онлайн-сопоставление с фактической погодой METAR, автоматическое внесение коррективов в прогнозы при резком отклонении фактической погоды от прогноза, подсчёт оправдываемости прогнозов по элементам и в целом;
- система обработки, анализа и отображения авиаметеорологической информации для применения провайдерами метеорологической информации.

Рекомендуем: Сайт где репетиторы по физике в Москве могут выложить свои предложения.

Погода Идринское - сегодня

Время (UTC), дата Ветер
(°,м/с) 
Видим.   Явления Облачность Т
(°С)
Тd
(°С)
f(%) Тe
(°С)
Pmin
(гПа)
dP
(гПа)
Po
(мм)
O2
(г/м3)
Тmin Tmax R s Состояние
почвы
21 26.03.17 140 (ЮВ) 20000 м    ясно 
-3.8 -4.1 98 -3  1021.7  -2.5  739  303           
00 27.03.17 150 (ЮВ) 20000 м    4/0 верхняя 
[Ci fib]
-3.5 -3.9 97 -5  1019.9  -1.6  738  302  -4.5      мокрый или
старый снег
50-90% 
03 27.03.17 160 (Ю) 20000 м    8/0 верхняя 
[Ci fib]
+4.3 -0.6 70 +5  1017.2  -1.6  737  292           
06 27.03.17 тихо ()   20000 м    10/0 верхняя 
[Cs]
+9.2 -1 49 +9  1015.2  -1.4  736  287           
09 27.03.17 240 (ЮЗ) 20000 м    10/0 верхняя 
[Cs]
+8 -0.3 56 +9  1015.2  -0.1  736  288           
12 27.03.17 тихо ()   20000 м    9/6 1000 м средняя, верхняя 
[Sc|Ac As|Ci fib]
+5.1 +0.4 72 +5  1017.2  1.6  737  291    +9.9       
15 27.03.17 240 (ЮЗ) 20000 м    10/10 1000 м 
[Sc]
+4 +0.6 78 +3  1020.7  3.2  739  294           
18 27.03.17 130 (ЮВ) 20000 м    4/4 1000 м 
[Sc]
+0.6 -0.7 91 +1  1023.3  2.1  741  298           
21 27.03.17 220 (ЮЗ) 20000 м    6/6 1000 м 
[Sc]
+2.3 -1.6 75 +2  1024.4  1.2  742  297           
00 28.03.17 230 (ЮЗ) 20000 м    10/10 1000 м 
[Sc]
+2.1 -2 74 +1  1026.4  1.9  743  297  +0.5      мокрый или
старый снег
50-90% 
03 28.03.17 210 (ЮЗ) 20000 м    10/10 1000 м 
[Sc]
+3.1 -1.6 71 +3  1028.1  1.8  745  297           
06 28.03.17 210 (ЮЗ) 20000 м    9/3 1000 м верхняя 
[Sc|Ci fib]
+6 -2.1 56 +7  1028.3  0.6  745  294           
09 28.03.17 160 (Ю) 20000 м    9/9 1000 м 
[Sc]
+6 -1.4 59 +6  1027.6  -0.7  745  294           
12 28.03.17 100 (В) 20000 м    9/3 1000 м верхняя 
[Sc|Ci fib]
+3.8 -1.6 68 +3  1027.3  -0.6  744  296    +6.4       
15 28.03.17 100 (В) 20000 м    ясно 
+2.1 -12.5 33 +1  1027.1  -0.4  744  299           
18 28.03.17 160 (Ю) 20000 м    ясно 
+0.6 -2.8 78 +1  1026.4  -0.9  743  299           
21 28.03.17 120 (ЮВ) 20000 м    6/0 верхняя 
[Ci fib]
+0.4 -3 78 +1  1025.9  -0.5  743  299           
00 29.03.17 110 (В) 20000 м    8/0 верхняя 
[Ci fib]
-1.4 -3.4 86 -3  1026.2  -0.1  743  301  -1.5      мокрый или
старый снег
50-90% 
03 29.03.17 120 (ЮВ) 20000 м    3/0 верхняя 
[Ci fib]
+5.6 -2.2 57 +5  1025  -0.3  743  293  -1.8         
06 29.03.17 130 (ЮВ) 20000 м    3/0 верхняя 
[Ci fib]
+10.3 -2 42 +10  1022.3  -2  741  288           
09 29.03.17 130 (ЮВ) 20000 м    3/0 верхняя 
[Ci fib]
+13.5 -2 34 +14  1019.3  -2.6  739  284           
12 29.03.17 140 (ЮВ) 2{10}  20000 м    9/0 верхняя 
[Ci fib]
+8.7 -1.7 48 +9  1018.2  -1.6  738  288    +13.6       
15 29.03.17 080 (В) 20000 м    9/0 верхняя 
[Ci sp]
+1.6 -2 77 +2  1019  0.1  738  296           
18 29.03.17 100 (В) 20000 м    9/0 верхняя 
[Ci sp]
-0.2 -2.2 86 1020.7  1.5  739  298           
21 29.03.17 010 (С) 20000 м    8/0 верхняя 
[Ci fib]
-0 -2.5 83 +1  1020.6  739  298           
Время (UTC), дата Ветер
(°,м/с) 
Видим.   Явления Облачность Т
(°С)
Тd
(°С)
f(%) Тe
(°С)
Pmin
(гПа)
dP
(гПа)
Po
(мм)
O2
(г/м3)
Тmin Tmax R s Состояние
почвы

Для получения пояснительной информации подведите курсор к названию столбца.

ПОГОДА Идринское - архив

Всё, что Вы хотите узнать о погоде Идринское - удобно и подробно!

Выберите нужную дату (начиная с 1 января 2015* года) и нажмите кнопку "Найти".
Будут отображены архивные сводки погоды по пункту Идринское, начиная с указанной даты.


Отображать данные в формате CSV (для использования в таблицах Excel)


Внимание! Наш архив погоды предназначен исключительно для личного некоммерческого использования в познавательных целях. Если Вам необходимы официальные справки о состоянии погоды (для производственных, юридических, коммерческих и т.п. целей), обращайтесь в органы Росгидромета.

*Примечание: данная дата относится к архиву по метеостанциям СССР (Россия, СНГ, Балтия).
Архив по метеостанциям Зарубежной Европы и Азии (кроме Китая) хранится 10 дней, по другим регионам земного шара (Китай, Африка, Америка, Австралия, Океания) - 1 день.

Идринское - район местоположения метеостанции


Название, широта, долгота, высота метеостанции:
Идринское 54.4°ш. 92.1°д. 282 м над ур. моря [Российская Федерация]

Дополнительная информация

В oтличие oт бoльшинства пoгoдных сайтoв мы публикуем пoдрoбную метеoинфoрмацию в детальнoм прoфессиoнальнoм фoрмате.

Характеристики температуры и влажнoсти вoздуха измеряются на высoте 2 м в тени вдали oт зданий и деревьев.
Скoрoсть ветра измеряется на высoте 10 м (на урoвне рoста челoвека скoрoсть ветра ниже в 1.5-2 раза). Если метеoстанция нахoдится в гoрoде или в лесу, тo скoрoсть ветра занижена на 2-4 м/с пo сравнению с oткрытым местoм. Скoрoсть ветра над акватoриями крупных рек и oзёр, а также на вершинах хoлмoв на 2-5 м/с выше, чем в oбычных услoвиях.
Атмoсфернoе давление в разных тoчках местнoсти мoжет значительнo oтличаться oт давления на метеoстанции, в зависимoсти oт услoвий рельефа (при пoдъёме на 10 м давление пoнижается примернo на 1 мм рт.ст.).